Location: Carabito
(9.8355°N, 67.9249°W)
Time: 21:52:52
(UTC+00:00)

COSMOS 2455 - Pass Details

Date: 23 May 2024
Orbit: 898 x 911 km, 67.1° (Epoch: 25 June)

Event Time Altitude Azimuth Distance (km) Brightness Sun altitude
Exits shadow 08:07:40 69° 314° (NW) 958 2.8 -28.1°
Drops below altitude 10° 08:13:18 10° 14° (NNE) 2,575 5.7 -26.9°
Sets 08:15:49 0° 16° (NNE) 3,518 6.6 -26.4°
